OpenBCM V1.13 (Linux)

Packet Radio Mailbox

DB0FHN

[JN59NK Nuernberg]

 Login: GUEST





  
I0OJJ  > KEPS     16.02.25 05:52l 336 Lines 15904 Bytes #999 (0) @ AMSAT
BID : ORB25047.1
Read: GUEST DJ6UX
Subj: 2Line Orbital Elements 25047.AMSAT
Path: DB0FHN<DB0FFL<OE5XBL<OE6XPE<DB0ERF<IZ3LSV<I0OJJ<I0OJJ
Sent: 250216/0345z @:I0OJJ.ITA.EU [Rome] obcm1.08-6-g5b69

>From i0ojj%i0ojj.ita.eu@i0ojj.ampr.org Sun Feb 16 04:45:06 2025
Received: from i0ojj.ampr.org by i0ojj.ampr.org (JNOS2.0p.6) with SMTP
	id AA17022044 ; Sun, 16 Feb 2025 04:45:06 +0100
Message-Id: <ORB25047.1@i0ojj.bbs>
>From: i0ojj@i0ojj.ita.eu
X-JNOS-User-Port: Telnet   (i0ojj @ 44.134.109.10)  -> Sending message

From: I0OJJ @ I0OJJ.ITA.EU (Gustavo)
To:   KEPS @ AMSAT
X-Info: This message was generated automatically


QST de W1STR

AMSAT Orbital Elements for Amateur Satellites in TLE Format
>From Orbital Analysis Office
New England Sci-Tech STEM Education Center
Natick, MA February 16, 2025
To all radio amateurs


These element sets describe the orbits of various satellites 
in use by the amateur radio community. For details see:
www.amsat.org/keplerian-elements-formats/

A daily update of element sets is available at:
www.amsat.org/tle/daily-bulletin.txt
or without bulletin text:
www.amsat.org/tle/dailytle.txt


AO-07
1 07530U 74089B   25046.85663088 -.00000050  00000-0 -24658-4 0  9990
2 07530 101.9940  49.9086 0012091 340.4402  95.9011 12.53686107299810
UO-11
1 14781U 84021B   25046.50260006  .00003388  00000-0  36849-3 0  9997
2 14781  97.7402  15.2769 0007915   6.7452 353.3871 14.88695418184667
AO-27
1 22825U 93061C   25046.15833393  .00000254  00000-0  11421-3 0  9993
2 22825  98.7538 107.0631 0009507  89.1160 271.1112 14.30728856637358
FO-29
1 24278U 96046B   25046.59465712  .00000020  00000-0  59382-4 0  9997
2 24278  98.5871 315.4265 0348915 277.9052  78.2628 13.53237145407357
NOAA-15
1 25338U 98030A   25046.79611270  .00000322  00000-0  15040-3 0  9991
2 25338  98.5483  74.6010 0009710 338.1760  21.9006 14.26883786392176
GO-32
1 25397U 98043D   25046.53587290  .00000212  00000-0  11183-3 0  9998
2 25397  98.9578  23.3551 0001680 138.7925 221.3380 14.24253644382055
ISS
1 25544U 98067A   25046.66546928  .00014234  00000-0  25559-3 0  9996
2 25544  51.6396 188.9093 0004418 323.8501 155.7067 15.50144684496311
NO-44
1 26931U 01043C   25046.77650989  .00000375  00000-0  17161-3 0  9991
2 26931  67.0502  62.0588 0006006 264.3863  95.6554 14.31618850220977
SO-50
1 27607U 02058C   25046.59676145  .00002835  00000-0  37821-3 0  9999
2 27607  64.5536 192.2166 0042647   2.7618 357.3714 14.80953257192340
CO-55
1 27844U 03031E   25046.56419167  .00000694  00000-0  32231-3 0  9991
2 27844  98.6791  56.3029 0010184 152.7247 207.4469 14.23820167122410
CO-57
1 27848U 03031J   25046.46016020  .00000615  00000-0  29141-3 0  9994
2 27848  98.6821  56.2900 0009752 169.1648 190.9742 14.23180658122134
RS-22
1 27939U 03042A   25046.83466175  .00002537  00000-0  41434-3 0  9992
2 27939  98.3140 213.6469 0011784  15.1600 122.5092 14.71765070144099
NOAA-18
1 28654U 05018A   25046.80404834  .00000380  00000-0  22494-3 0  9992
2 28654  98.8511 127.5351 0015185  93.3970 266.8939 14.13516095 17673
CO-58
1 28895U 05043F   25046.35233405  .00004012  00000-0  67390-3 0  9991
2 28895  98.2296 189.4586 0014118 311.0298  48.9686 14.70163500 30157
CO-65
1 32785U 08021C   25046.53382988  .00011178  00000-0  85130-3 0  9997
2 32785  97.7703  17.1063 0009177 235.5072 124.5286 15.02215341912011
AAUSAT2
1 32788U 08021F   25046.51147013  .00118326  00000-0  22319-2 0  9998
2 32788  97.6069  38.2503 0006672  74.2312 285.9673 15.48022910915522
CO-66
1 32791U 08021J   25046.49916080  .00021800  00000-0  12031-2 0  9997
2 32791  97.7184  24.4314 0004348 165.1424 194.9936 15.13957279913283
RS-30
1 32953U 08025A   25046.76519611  .00000034  00000-0  17461-3 0  9999
2 32953  82.5032 297.9852 0018871 296.0053  63.9083 12.43158772759398
NOAA-19
1 33591U 09005A   25046.79192697  .00000319  00000-0  19429-3 0  9993
2 33591  99.0132 110.7915 0013102 328.4001  31.6383 14.13285538826039
SRMSAT
1 37841U 11058D   25046.55360579  .00000601  00000-0  18308-3 0  9995
2 37841  19.9713 124.5348 0011545 250.8838 137.2527 14.11361428688989
ZACUBE-1
1 39417U 13066B   25046.86479229  .00009910  00000-0  90079-3 0  9991
2 39417  97.7668   4.7278 0047779  72.4385 288.2047 14.94551861607918
Delfi-N3xt
1 39428U 13066N   25046.72047179  .00016635  00000-0  17937-2 0  9996
2 39428  97.8379 325.8483 0090126  16.2425 344.1646 14.85498821602334
GOMX-1
1 39430U 13066Q   25046.80721293  .00004316  00000-0  68430-3 0  9992
2 39430  97.6990 272.3988 0133749 195.8633 163.8364 14.66808427598720
LO-74
1 39440U 13066AA  25046.58543049  .00007715  00000-0  81223-3 0  9990
2 39440  97.8392 352.1513 0063647 194.1576 165.7859 14.88153654604476
AO-73
1 39444U 13066AE  25046.42279650  .00015932  00000-0  12846-2 0  9995
2 39444  97.7506   8.3355 0043454  51.5385 308.9724 14.99226309606461
DTUSAT-2
1 40030U 14033W   25046.88714093  .00013236  00000-0  92528-3 0  9999
2 40030  98.0444  13.5200 0012378  86.0774 274.1866 15.05382499579788
EO-80
1 40032U 14033Y   25046.84725894  .00014807  00000-0  10323-2 0  9995
2 40032  98.0325  13.2861 0010101  36.1176 324.0730 15.05475210579769
XW-2C
1 40906U 15049H   25046.76697187  .03600173  25167-5  11067-2 0  9999
2 40906  97.4317  82.7657 0004613 217.3065 142.7907 16.26766166522494
LILACSAT-2
1 40908U 15049K   25046.81700447  .00017859  00000-0  52887-3 0  9991
2 40908  97.5161  64.6618 0009368 196.4965 163.5974 15.34892487520754
IO-86
1 40931U 15052B   25038.81889873  .00001817  00000-0  15548-3 0  9993
2 40931   6.0001 108.1159 0012838 187.7041 172.2889 14.78568669506492
Horyu-4
1 41340U 16012D   25046.44851447  .00032097  00000-0  10803-2 0  9991
2 41340  30.9989 175.5898 0005999 323.3418  36.6814 15.29569873495259
Lapan A3
1 41603U 16040E   25046.84383669  .00006085  00000-0  22157-3 0  9998
2 41603  97.1396  55.9963 0009938 323.6873  36.3692 15.28515230480406
CAS-2T
1 41847U 16066G   25046.77759320  .00003811  00000-0  55066-3 0  9998
2 41847  98.4313 122.2166 0348562 162.5077 198.8483 14.42934288434603
CAS-4B
1 42759U 17034B   25046.81211586  .00050622  00000-0  95519-3 0  9998
2 42759  43.0104 272.0307 0017545 220.6207 139.3344 15.47530998424887
CAS-4A
1 42761U 17034D   25046.84168385  .00060535  00000-0  11197-2 0  9995
2 42761  43.0139 269.8031 0018896 226.5665 133.3622 15.48007669424900
TechnoSat
1 42829U 17042E   25046.52608001  .00006081  00000-0  48856-3 0  9997
2 42829  97.3890 220.7536 0011898 318.3709  41.6609 15.00322903413612
AO-91
1 43017U 17073E   25046.57985435  .00015031  00000-0  81393-3 0  9993
2 43017  97.5486 280.3180 0181261 194.0834 165.5300 15.01642789392081
S-Net D
1 43186U 18014G   25046.72489744  .00009677  00000-0  60203-3 0  9991
2 43186  97.5735 310.8776 0007502 253.6704 106.3700 15.09803692385188
S-Net B
1 43187U 18014H   25046.72895619  .00009781  00000-0  60861-3 0  9990
2 43187  97.5739 310.8475 0008347 248.1671 111.8671 15.09789222385189
S-Net A
1 43188U 18014J   25046.72564002  .00009704  00000-0  60352-3 0  9990
2 43188  97.5747 310.9800 0008151 248.7873 111.2486 15.09808232385186
S-Net C
1 43189U 18014K   25046.73109672  .00009791  00000-0  60906-3 0  9991
2 43189  97.5764 310.9800 0009909 240.6448 119.3792 15.09786557383730
Ten-Koh
1 43677U 18084G   25046.53458452  .00006195  00000-0  51058-3 0  9994
2 43677  98.0843 214.2706 0010571 287.4684  72.5382 14.99395683343145
PO-101
1 43678U 18084H   25046.76001892  .00004874  00000-0  42529-3 0  9997
2 43678  98.0936 218.6604 0007395 312.1355  47.9237 14.97315634343348
QO-100
1 43700U 18090A   25045.83297537  .00000142  00000-0  00000-0 0  9999
2 43700   0.0117 109.4998 0001346 240.5026 120.7118  1.00275039 22795
MinXSS-2
1 43758U 18099A   25046.42259297  .00024314  00000-0  11210-2 0  9992
2 43758  97.5184 112.4262 0013178 193.2480 166.8411 15.20175732339597
AO-95
1 43770U 18099N   25046.63868594  .00016586  00000-0  92038-3 0  9995
2 43770  97.5093 106.1392 0010535 244.9791 115.0347 15.13778428339291
RANGE-A
1 43773U 18099R   25046.69199651  .00009738  00000-0  64908-3 0  9991
2 43773  97.4659  98.4209 0011115 218.2251 141.8190 15.07230055339050
MOVE-II
1 43780U 18099Y   25046.11119206  .00080105  00000-0  18681-2 0  9997
2 43780  97.4830 116.3387 0004263 201.4778 158.6291 15.41933157339992
SNUSat 2
1 43782U 18099AA  25046.68118471  .00013334  00000-0  78464-3 0  9990
2 43782  97.4782 103.8136 0012794 181.4679 178.6516 15.11694221339274
SnugLite
1 43784U 18099AC  25046.56011312  .00016662  00000-0  91797-3 0  9996
2 43784  97.4594 103.0697 0003822 174.3975 185.7300 15.14073661339365
ITASat 1
1 43786U 18099AE  25046.70708901  .00012461  00000-0  75913-3 0  9996
2 43786  97.4741 103.6518 0014217 236.5398 123.4473 15.10437037339254
EAGLET 1
1 43790U 18099AJ  25046.57776308  .00008546  00000-0  56837-3 0  9995
2 43790  97.4934 103.7993 0011878 216.0881 143.9547 15.07342652338882
ESEO
1 43792U 18099AL  25046.50342170  .00003349  00000-0  26103-3 0  9995
2 43792  97.4595  98.4539 0010672 180.3139 179.8081 15.01802878338698
CSIM
1 43793U 18099AM  25046.16246836  .00089296  00000-0  20727-2 0  9990
2 43793  97.5006 118.3700 0007427 180.1005 180.0241 15.42017174339845
JO-97
1 43803U 18099AX  25046.62063913  .00019270  00000-0  98640-3 0  9991
2 43803  97.4839 106.9303 0008302 174.9098 185.2221 15.16627557339475
Suomi 100
1 43804U 18099AY  25046.73776732  .00016364  00000-0  88116-3 0  9992
2 43804  97.4902 106.6138 0013459 178.6299 181.4973 15.14822347339444
ISAT
1 43879U 18111D   25046.72735473  .00028216  00000-0  11918-2 0  9999
2 43879  97.6037 319.0981 0008026 228.6851 131.3695 15.23190414334305
UWE-4
1 43880U 18111E   25046.25765628  .00023469  00000-0  10729-2 0  9998
2 43880  97.5973 317.7883 0011217 246.8640 113.1413 15.20499553336227
Sparrow
1 43881U 18111F   25046.72349702  .00030546  00000-0  12565-2 0  9996
2 43881  97.6161 321.5783 0005460 283.0387  77.0240 15.24083346334401
